Theta_e
318 317 314 314 311 309 311 309 307 306 306 307 308 310 310 310 310 311 309 309 307 308 304 303 303 303 304 306 309 311 313 318 321 318 316 314 313 313 312 311 310 310 309
316 314 312 310 308 306 306 308 305 304 303 305 306 307 309 309 307 307 306 307 306 305 305 306 304 306 303 303 304 305 308 309 314 317 314 313 311 309 308 308 307 306 306
314 313 312 310 306 303 305 306 306 304 303 303 304 304 305 306 305 304 303 302 302 303 305 304 302 304 303 302 301 303 303 305 307 309 310 307 307 306 306 305 305 305 304
311 313 311 307 304 302 305 306 305 304 304 304 303 302 302 302 302 301 300 300 300 299 300 301 301 300 300 300 300 300 301 302 304 306 306 306 305 304 305 304 305 304 304
310 310 309 305 303 302 304 304 304 303 303 301 301 301 300 298 298 298 297 297 297 297 297 299 301 303 301 300 300 301 302 303 304 304 305 304 304 304 303 303 304 303 304
309 310 308 306 304 305 303 303 303 302 301 301 300 300 299 297 297 297 298 300 301 302 301 299 298 299 300 299 299 299 300 302 303 303 303 302 302 302 303 303 302 304 305
309 309 308 306 305 301 304 303 302 300 300 299 300 300 299 298 295 296 298 300 300 300 301 301 300 299 300 301 300 301 300 300 300 304 303 303 303 303 304 303 303 303 304
309 306 305 303 301 300 304 302 301 301 300 300 301 300 299 298 296 296 297 299 299 299 300 300 301 301 299 301 303 303 302 303 303 303 303 303 303 303 304 302 304 305 306
305 305 303 302 302 304 303 302 302 301 301 301 301 300 300 299 296 297 298 299 300 300 301 300 302 301 299 301 304 304 304 302 302 301 301 300 299 300 301 304 305 306 306
305 304 303 303 303 303 302 302 302 302 302 303 303 302 300 301 297 298 300 302 302 302 302 302 301 300 301 302 304 304 304 304 304 304 303 303 303 302 301 304 305 306 306
304 304 303 302 303 303 303 302 301 301 302 302 302 302 302 301 300 299 301 302 303 304 303 303 302 302 302 302 302 303 303 302 302 302 302 303 304 305 304 303 304 305 305
305 304 303 303 302 304 303 303 303 303 302 303 303 302 301 302 300 300 300 300 301 302 302 303 302 302 302 302 302 302 302 302 303 302 301 301 301 301 301 301 300 301 301
305 303 303 303 303 304 304 303 302 303 305 305 304 303 302 302 302 302 302 302 302 303 302 302 302 303 304 304 302 302 302 301 301 302 302 300 300 300 300 300 300 300 300
305 303 303 302 303 304 304 304 302 302 304 304 303 303 303 302 303 303 304 304 304 304 304 304 304 304 303 303 304 303 302 302 301 300 300 300 300 300 301 300 301 301 300
303 304 303 303 304 304 304 304 304 303 302 303 304 303 303 303 304 304 303 304 304 304 306 304 303 304 304 303 302 303 302 302 301 300 300 299 299 300 300 300 301 300 300
304 304 303 304 304 304 304 306 304 304 304 304 305 305 304 304 305 304 304 304 305 305 304 303 303 302 302 302 303 301 301 302 302 300 300 301 300 300 300 300 300 300 300
305 303 304 304 304 304 305 305 305 305 305 305 305 306 305 304 304 305 305 306 305 305 303 303 305 304 302 302 302 303 302 301 301 301 300 300 300 300 300 300 300 300 300
303 302 304 304 304 304 305 305 306 307 307 307 305 304 305 304 303 304 305 306 305 305 304 305 305 304 303 303 301 302 303 303 303 302 303 302 300 300 301 301 301 301 302
304 304 304 305 305 305 306 306 306 307 307 307 306 306 306 305 305 303 304 305 304 304 304 304 304 304 305 303 302 302 304 304 304 303 302 303 303 304 303 302 300 300 301
302 301 303 305 305 305 306 306 306 307 307 307 307 305 304 305 305 305 306 304 304 304 304 303 303 303 303 304 303 303 303 303 305 307 305 303 303 305 304 304 302 301 301
304 303 303 305 305 305 305 306 306 307 307 306 306 303 303 306 305 305 305 304 304 303 303 302 302 302 303 304 301 301 302 304 303 305 308 307 307 307 305 304 303 301 300
304 304 304 305 305 305 306 306 306 306 306 306 304 304 304 304 302 302 304 303 303 302 302 301 301 301 302 302 300 299 300 302 302 302 307 309 308 307 305 303 303 303 301
304 304 304 305 304 304 305 305 305 305 305 303 302 302 301 302 303 303 303 303 302 302 302 301 301 301 301 302 299 298 298 299 300 301 306 308 307 307 307 305 305 304 303
303 304 304 303 303 304 303 304 304 303 303 303 303 304 303 302 302 302 301 301 301 301 301 301 300 301 301 301 298 297 298 302 303 303 303 308 308 307 308 307 306 305 305
302 303 303 303 303 302 302 302 303 302 302 302 301 301 301 300 300 300 299 300 300 300 300 300 300 300 301 300 298 298 299 302 303 304 304 307 307 308 307 305 304 303 303
302 302 302 302 302 301 302 301 302 301 301 300 300 299 299 299 298 298 300 299 299 300 300 300 300 300 300 299 297 298 299 302 303 304 305 307 307 308 308 306 305 304 304
Wind_Speed
23 22 23 21 20 20 22 22 23 25 26 28 27 25 23 20 17 14 13 13 16 18 22 26 26 24 25 20 20 17 14 7 10 9 11 5 4 3 3 5 4 5 5
20 16 14 14 17 19 20 21 24 24 25 26 25 26 21 23 22 21 22 21 22 23 21 27 23 26 26 23 18 17 14 14 8 7 6 3 2 2 3 5 5 6 7
19 14 12 15 16 18 20 22 23 22 22 23 23 26 26 20 19 19 20 21 21 19 17 17 17 19 21 19 19 18 16 12 8 3 2 1 1 2 3 2 4 5 5
18 18 12 15 17 20 19 22 23 22 22 22 23 24 23 21 19 17 17 19 18 17 17 18 18 18 16 15 11 15 14 11 7 2 2 1 1 2 2 6 5 6 6
17 17 13 15 16 18 19 21 22 22 22 21 21 21 23 25 22 19 18 18 17 16 16 14 16 16 16 15 11 12 8 2 2 2 5 4 5 9 6 4 4 4 3
17 16 13 12 14 17 19 19 20 21 22 22 20 19 19 19 17 16 12 11 11 12 12 12 13 11 15 12 11 8 8 7 6 6 5 7 5 5 5 8 7 6 3
18 19 14 11 16 17 18 19 20 20 21 21 21 21 21 20 17 14 16 14 14 14 14 13 14 13 9 9 8 7 7 6 6 5 6 5 7 7 5 6 4 2 3
19 18 17 17 17 17 19 20 19 19 18 18 20 20 20 20 19 16 15 15 14 15 14 14 14 12 11 9 7 7 6 5 3 4 4 4 5 4 5 5 3 3 2
18 17 15 13 16 18 19 19 20 19 18 18 19 20 19 23 18 14 13 14 14 14 15 13 12 11 11 10 7 7 6 7 6 5 3 3 4 5 4 6 5 3 3
17 16 12 13 15 17 17 19 17 18 18 17 17 17 20 20 19 18 15 14 12 12 11 9 15 12 12 10 8 8 6 7 6 5 6 6 4 3 6 5 7 8 7
16 15 14 14 17 17 16 16 16 17 17 18 17 17 16 18 19 20 20 16 14 12 12 11 11 13 13 12 12 10 9 8 9 7 5 5 4 5 6 7 8 9 9
14 14 15 14 13 15 17 18 19 18 18 18 18 18 19 17 18 19 20 18 14 12 12 12 12 14 15 14 14 12 9 8 7 9 9 9 8 7 7 7 8 7 7
13 13 13 12 12 14 17 19 20 20 20 19 19 19 19 22 19 19 18 18 17 12 11 10 12 13 11 12 14 13 11 11 9 9 9 9 7 5 6 6 7 7 8
11 12 12 12 11 13 17 16 17 18 18 19 18 21 19 21 23 22 18 16 16 15 12 13 14 15 16 14 14 12 12 11 11 8 7 7 7 7 6 4 3 6 8
8 11 11 12 10 11 14 18 15 17 22 23 23 16 22 21 21 19 19 18 18 21 20 19 20 17 16 16 19 14 12 12 11 9 8 7 7 7 6 5 6 7 6
6 11 9 10 9 10 10 11 15 18 19 20 21 22 17 20 19 21 19 16 18 19 19 19 18 17 17 15 15 17 17 12 10 10 9 8 7 6 6 6 6 5 5
7 7 8 9 9 8 11 13 11 11 18 21 21 19 20 19 17 17 13 17 23 21 26 20 18 16 19 14 12 10 10 13 11 9 11 9 8 7 6 6 5 6 7
8 8 8 9 9 7 8 8 10 13 15 17 17 18 18 22 23 21 21 18 20 21 21 19 15 17 18 16 17 10 10 9 9 8 7 7 9 10 8 7 7 7 7
7 8 9 10 9 7 9 9 10 8 11 13 14 14 15 15 17 22 22 21 21 22 21 19 18 18 16 17 16 16 9 7 5 4 5 4 5 5 6 6 8 8 9
9 8 8 8 9 10 10 9 10 9 9 14 15 17 16 15 17 18 18 20 21 21 22 21 21 19 16 16 18 15 16 12 9 3 2 2 1 2 4 4 5 5 5
7 6 7 8 9 9 9 9 8 8 9 9 9 12 12 15 15 16 20 19 18 18 19 20 21 21 17 17 20 17 13 12 12 10 5 2 2 2 6 4 5 6 6
6 5 5 7 8 10 10 10 10 11 12 13 16 13 15 14 13 14 16 17 17 17 17 17 19 19 17 17 20 18 15 12 13 10 10 5 4 4 6 7 6 8 9
6 5 5 7 7 6 8 9 10 11 11 11 10 12 12 12 15 17 16 17 18 17 16 16 17 18 18 17 18 17 17 15 12 9 9 8 4 4 5 10 9 8 8
5 4 4 5 7 6 8 8 8 9 10 10 11 11 14 17 18 18 19 18 17 16 16 15 17 17 18 18 18 18 20 16 11 11 7 5 2 3 3 6 10 11 11
3 2 3 4 4 5 5 7 9 9 10 12 13 14 15 15 16 16 16 16 17 15 14 14 15 16 17 18 20 22 22 15 12 10 5 6 2 2 3 9 9 9 8
1 1 1 3 3 5 6 8 8 8 9 10 11 12 12 12 13 13 15 16 16 15 14 14 15 17 16 18 21 21 21 17 12 8 6 4 1 3 2 6 5 6 4
Wind_Direction
351 353 354 354 359 2 4 5 6 8 16 16 19 31 32 28 28 34 41 50 58 69 63 51 58 57 51 40 65 54 51 24 111 102 113 95 90 52 360 349 327 317 298
348 354 357 3 4 5 6 5 7 12 14 17 20 28 33 41 45 50 57 62 67 68 67 74 55 55 50 40 38 43 41 36 28 97 94 117 71 5 335 323 313 302 299
359 10 17 10 10 9 8 5 7 7 13 21 25 30 38 43 48 56 61 65 59 57 56 54 54 52 51 47 40 41 30 25 29 356 80 99 320 352 312 303 326 319 307
9 13 21 18 13 8 3 4 7 10 15 23 31 34 35 41 48 55 60 64 60 54 50 51 51 56 66 60 53 52 46 26 16 50 99 112 36 34 48 18 351 353 339
2 16 18 19 16 13 10 9 12 18 22 30 31 38 40 41 44 54 56 56 56 54 50 53 55 62 62 62 57 52 43 42 37 74 101 90 62 56 42 0 1 16 109
14 14 21 22 16 9 12 15 22 24 27 28 31 35 36 34 31 32 35 33 37 42 51 54 57 60 64 73 67 85 60 63 51 57 65 81 92 80 61 52 18 38 54
14 18 16 26 21 15 13 22 23 23 24 27 30 30 34 28 27 33 22 36 45 49 52 56 64 61 71 75 71 68 60 43 50 29 74 84 75 65 45 47 31 32 32
21 22 20 38 27 20 25 24 22 24 25 24 27 24 25 24 30 40 40 49 59 59 57 57 63 63 43 39 31 35 30 34 33 33 51 59 61 62 58 52 26 16 70
22 22 28 31 24 28 26 23 21 26 28 25 26 26 24 29 41 44 49 53 58 59 65 50 53 45 27 28 20 37 52 36 25 63 81 107 96 74 59 20 40 26 39
21 27 42 36 32 32 31 25 21 21 20 19 22 29 28 36 38 31 43 68 67 76 63 51 28 25 23 23 25 34 46 37 43 64 46 57 75 50 41 13 1 356 10
30 44 49 47 44 38 31 22 17 12 16 17 22 27 31 33 33 39 41 43 39 44 38 27 25 39 41 46 51 42 43 50 52 60 61 59 63 52 36 21 16 7 7
42 53 53 48 44 36 26 23 22 20 19 19 21 24 27 29 32 29 33 35 37 36 32 31 29 40 42 47 48 49 47 59 54 75 80 65 64 54 40 40 37 33 33
41 52 51 44 39 30 30 26 25 30 26 25 24 20 19 29 34 40 40 40 44 43 37 39 47 44 45 42 46 53 49 58 54 55 59 53 44 59 50 48 48 56 49
42 55 53 42 41 40 38 36 32 29 22 22 17 18 24 34 35 35 31 38 45 39 48 50 50 53 54 41 38 43 51 51 50 46 49 52 50 50 49 44 35 60 64
45 41 49 51 48 41 42 41 43 34 35 38 36 29 28 30 38 42 41 38 38 40 48 46 40 31 29 43 45 41 44 44 43 43 50 54 51 52 48 51 60 80 87
45 43 46 48 51 42 36 65 44 37 42 46 40 42 41 46 49 52 48 50 52 43 45 42 32 28 27 23 29 37 39 35 40 48 49 55 54 54 59 62 73 75 76
51 49 52 52 50 50 38 37 37 36 52 48 42 45 43 43 46 35 29 46 47 44 44 28 26 22 22 16 11 10 26 44 47 52 57 57 60 60 63 67 70 77 74
75 54 50 47 56 57 56 43 39 32 33 42 33 37 49 45 45 42 36 43 36 34 32 25 27 22 17 11 22 12 22 22 36 45 50 65 75 77 72 71 70 77 81
72 62 52 54 61 52 44 51 50 38 33 50 28 31 26 47 41 41 40 37 28 25 22 26 21 17 20 19 12 14 6 349 15 35 55 62 64 80 88 84 79 83 88
83 47 48 55 56 57 55 51 36 33 36 27 29 27 27 36 32 29 29 27 23 20 17 14 16 18 20 19 13 10 5 10 354 349 14 58 55 103 84 94 106 97 89
87 76 66 58 55 61 51 48 38 32 34 58 46 33 21 26 27 20 15 18 16 16 12 12 14 16 21 18 7 8 8 4 2 353 1 29 106 66 113 113 120 116 118
80 76 70 57 43 43 48 45 44 45 37 33 33 31 24 32 23 17 11 11 12 15 16 17 12 18 15 15 4 5 5 359 356 359 354 25 42 61 125 120 125 133 130
88 90 61 43 38 32 38 43 43 38 48 43 33 24 19 11 11 7 3 4 6 11 16 21 17 14 15 15 7 6 354 351 345 342 341 349 48 59 70 133 124 126 133
88 66 68 55 27 21 25 22 27 22 11 13 11 7 7 9 3 3 5 0 3 7 12 16 11 10 13 11 5 6 359 357 359 351 328 334 71 89 96 111 120 112 115
92 58 43 37 47 36 14 7 3 6 4 1 359 356 354 356 357 358 357 358 358 2 6 8 8 4 8 8 5 10 9 8 9 5 2 332 179 91 87 116 119 116 114
80 68 338 345 352 2 358 359 352 353 355 356 356 355 354 357 358 1 1 2 1 1 1 1 359 359 3 2 3 10 11 12 17 18 21 344 76 118 149 130 134 128 120